Regional Weather Roundup
Issued by NWS Midland/Odessa, TX

Skip options and go directly to product.
Home | Oldest Version | Next Version | Current Version | All | Text Only | Save Text | Print | Product List | Glossary On

Skip product version selection by date and time.   
353
ASUS44 KMAF 280510
RWRMAF
MIDLAND AREA WEATHER ROUNDUP
NATIONAL WEATHER SERVICE MIDLAND TX
1200 AM CDT SAT MAY 28 2016

...IN SOUTHWEST TEXAS AND SOUTHEAST NEW MEXICO...

CITY           SKY/WX    TMP DP  RH WIND       PRES   REMARKS
ALPINE         CLEAR     57  19  23 SW6       30.03S
ANDREWS        FAIR      72  23  15 W12       29.87S
ARTESIA        CLEAR     66  21  18 W10       29.87S
BIG SPRING     CLEAR     62  37  39 SE6       29.86S
CARLSBAD       CLEAR     68  18  14 W13       29.86R
DRYDEN           N/A     70  29  21 W6        29.81R
FORT STOCKTON  CLEAR     67  17  14 SW10      29.88R
GUAD PASS      NOT AVBL
HOBBS          CLEAR     70  18  13 SW10      29.89S
MARFA          CLEAR     51  15  23 CALM      30.02R
MIDLAND AIRPK  CLEAR     76  17  10 SW6       29.86R
MIDLAND INTL   CLEAR     65  19  17 SW6       29.85R
ODESSA         CLEAR     71  15  11 W7        29.86S
PECOS          CLEAR     65  15  14 SW9       29.85R
PRESIDIO       FAIR      74  15  10 N8        29.85R
SEMINOLE       CLEAR     66  30  26 W6        29.88S
SNYDER           N/A     72  29  20 S7        29.84R
WINK           CLEAR     69  17  13 W9        29.83S
$$
...OTHER STATIONS IN TEXAS...

CITY           SKY/WX    TMP DP  RH WIND       PRES   REMARKS
ABILENE        CLEAR     69  65  86 S12       29.82S
AMARILLO       CLEAR     57  44  62 N10       29.92R
AUSTIN         PTCLDY    65  65 100 CALM      29.81S
BROWNSVILLE    CLEAR     79  76  90 SE7       29.78R
CORPUS CHRISTI MOCLDY    76  69  79 E7        29.80F
DALLAS FTW     PTCLDY    66  63  90 SE8       29.81R
DEL RIO        CLEAR     72  47  40 SE5       29.77R
EL PASO        CLEAR     74  16  11 NW7       29.92R
HOUSTON INT    CLOUDY    67  65  93 SE5       29.81S
LUBBOCK        CLEAR     63  41  44 E7        29.85R
SAN ANGELO     CLEAR     67  54  63 S9        29.82R
SAN ANTONIO    CLEAR     69  66  90 SE6       29.83R
WACO           CLOUDY    67  65  93 SE8       29.83R
WICHITA FALLS  NOT AVBL
$$
...OTHER LOCATIONS IN NEW MEXICO...

CITY           SKY/WX    TMP DP  RH WIND       PRES   REMARKS
ALAMAGORDO     CLEAR     64  16  15 SE7       29.93S
ALBUQUERQUE    CLOUDY    67  24  19 NW6       29.98R
CANNON AFB     MOCLDY    64  36  35 N22G32    29.92R
CLOVIS         PTCLDY    61  36  39 N25       29.92R
HOLLOMAN AFB   CLEAR     66  18  15 S8        29.90R
ROSWELL        CLEAR     69  23  17 W12       29.87R
RUIDOSO          N/A     59  23  25 SW9       30.09S
SANTA FE       MOCLDY    53  31  42 N10       30.03R
TRUTH OR CONSE PTCLDY    70  26  19 W9        29.94R
TUCUMCARI      CLEAR     59  42  53 NE5       29.92S
$$

USA.gov is the U.S. government's official web portal to all federal, state and local government web resources and services.